User: anonymous   Login
Location: Caltech
(34.1382°N, 118.1253°W)
Time: 05:05:34
(UTC-07:00)
Language:

AO-Echo - Orbit

View from above orbital plane
View from above orbital plane
View from above satellite
View from above satellite

Ground track
Ground track

The orbit data is extracted from the following two-line orbital elements,

1 28375U 04025K   17232.76408162 +.00000008 +00000-0 +15483-4 0  9998
2 28375 098.3593 164.8856 0083809 088.7402 272.3388 14.41848225691063
Epoch (UTC): 20 August 2017 18:20:16
Eccentricity: 0.0083809
inclination: 98.3593°
perigee height: 692 km
apogee height: 812 km
right ascension of ascending node: 164.8856°
argument of perigee: 88.7402°
revolutions per day: 14.41848225
mean anomaly at epoch: 272.3388°
orbit number at epoch: 69106

The dashed part of the orbit path shows where the satellite is in the earth's shadow,  

DLR